Year,Month,Day,Hour,Minute,Value (Times are PST for temperature in C)
2014,09,14,00,00,13.60
2014,09,14,00,01,13.60
2014,09,14,00,02,13.60
2014,09,14,00,03,13.60
2014,09,14,00,04,13.60
2014,09,14,00,05,13.60
2014,09,14,00,06,13.60
2014,09,14,00,07,13.60
2014,09,14,00,08,13.60
2014,09,14,00,09,13.60
2014,09,14,00,10,13.70
2014,09,14,00,11,13.70
2014,09,14,00,12,13.70
2014,09,14,00,13,13.70
2014,09,14,00,14,13.70
2014,09,14,00,15,13.70
2014,09,14,00,16,13.80
2014,09,14,00,17,13.80
2014,09,14,00,18,13.80
2014,09,14,00,19,13.70
2014,09,14,00,20,13.70
2014,09,14,00,21,13.70
2014,09,14,00,22,13.70
2014,09,14,00,23,13.70
2014,09,14,00,24,13.70
2014,09,14,00,25,13.70
2014,09,14,00,26,13.70
2014,09,14,00,27,13.70
2014,09,14,00,28,13.70
2014,09,14,00,29,13.70
2014,09,14,00,30,13.70
2014,09,14,00,31,13.70
2014,09,14,00,32,13.70
2014,09,14,00,33,13.70
2014,09,14,00,34,13.70
2014,09,14,00,35,13.70
2014,09,14,00,36,13.70
2014,09,14,00,37,13.70
2014,09,14,00,38,13.70
2014,09,14,00,39,13.70
2014,09,14,00,40,13.70
2014,09,14,00,41,13.70
2014,09,14,00,42,13.70
2014,09,14,00,43,13.70
2014,09,14,00,44,13.70
2014,09,14,00,45,13.70
2014,09,14,00,46,13.70
2014,09,14,00,47,13.70
2014,09,14,00,48,13.60
2014,09,14,00,49,13.60
2014,09,14,00,50,13.50
2014,09,14,00,51,13.50
2014,09,14,00,52,13.40
2014,09,14,00,53,13.30
2014,09,14,00,54,13.30
2014,09,14,00,55,13.30
2014,09,14,00,56,13.30
2014,09,14,00,57,13.20
2014,09,14,00,58,13.20
2014,09,14,00,59,13.10
2014,09,14,01,00,13.10
2014,09,14,01,01,13.00
2014,09,14,01,02,13.00
2014,09,14,01,03,13.00
2014,09,14,01,04,12.90
2014,09,14,01,05,12.90
2014,09,14,01,06,12.80
2014,09,14,01,07,12.80
2014,09,14,01,08,12.70
2014,09,14,01,09,12.60
2014,09,14,01,10,12.60
2014,09,14,01,11,12.50
2014,09,14,01,12,12.50
2014,09,14,01,13,12.50
2014,09,14,01,14,12.40
2014,09,14,01,15,12.40
2014,09,14,01,16,12.40
2014,09,14,01,17,12.40
2014,09,14,01,18,12.40
2014,09,14,01,19,12.40
2014,09,14,01,20,12.40
2014,09,14,01,21,12.40
2014,09,14,01,22,12.30
2014,09,14,01,23,12.30
2014,09,14,01,24,12.30
2014,09,14,01,25,12.30
2014,09,14,01,26,12.30
2014,09,14,01,27,12.30
2014,09,14,01,28,12.30
2014,09,14,01,29,12.30
2014,09,14,01,30,12.20
2014,09,14,01,31,12.20
2014,09,14,01,32,12.20
2014,09,14,01,33,12.20
2014,09,14,01,34,12.10
2014,09,14,01,35,12.10
2014,09,14,01,36,12.10
2014,09,14,01,37,12.10
2014,09,14,01,38,12.20
2014,09,14,01,39,12.20
2014,09,14,01,40,12.20
2014,09,14,01,41,12.20
2014,09,14,01,42,12.20
2014,09,14,01,43,12.20
2014,09,14,01,44,12.30
2014,09,14,01,45,12.30
2014,09,14,01,46,12.30
2014,09,14,01,47,12.30
2014,09,14,01,48,12.30
2014,09,14,01,49,12.20
2014,09,14,01,50,12.20
2014,09,14,01,51,12.20
2014,09,14,01,52,12.20
2014,09,14,01,53,12.10
2014,09,14,01,54,12.10
2014,09,14,01,55,12.10
2014,09,14,01,56,12.10
2014,09,14,01,57,12.00
2014,09,14,01,58,12.00
2014,09,14,01,59,12.00
2014,09,14,02,00,12.00
2014,09,14,02,01,12.00
2014,09,14,02,02,12.00
2014,09,14,02,03,12.00
2014,09,14,02,04,12.00
2014,09,14,02,05,12.00
2014,09,14,02,06,12.10
2014,09,14,02,07,12.10
2014,09,14,02,08,12.10
2014,09,14,02,09,12.10
2014,09,14,02,10,12.10
2014,09,14,02,11,12.10
2014,09,14,02,12,12.10
2014,09,14,02,13,12.10
2014,09,14,02,14,12.10
2014,09,14,02,15,12.10
2014,09,14,02,16,12.10
2014,09,14,02,17,12.10
2014,09,14,02,18,12.00
2014,09,14,02,19,12.00
2014,09,14,02,20,12.00
2014,09,14,02,21,11.90
2014,09,14,02,22,11.90
2014,09,14,02,23,11.90
2014,09,14,02,24,11.90
2014,09,14,02,25,11.90
2014,09,14,02,26,11.80
2014,09,14,02,27,11.80
2014,09,14,02,28,11.80
2014,09,14,02,29,11.80
2014,09,14,02,30,11.80
2014,09,14,02,31,11.80
2014,09,14,02,32,11.80
2014,09,14,02,33,11.80
2014,09,14,02,34,11.80
2014,09,14,02,35,11.90
2014,09,14,02,36,11.90
2014,09,14,02,37,11.90
2014,09,14,02,38,12.00
2014,09,14,02,39,12.00
2014,09,14,02,40,12.00
2014,09,14,02,41,12.00
2014,09,14,02,42,12.10
2014,09,14,02,43,12.10
2014,09,14,02,44,12.10
2014,09,14,02,45,12.20
2014,09,14,02,46,12.20
2014,09,14,02,47,12.20
2014,09,14,02,48,12.20
2014,09,14,02,49,12.30
2014,09,14,02,50,12.30
2014,09,14,02,51,12.30
2014,09,14,02,52,12.30
2014,09,14,02,53,12.30
2014,09,14,02,54,12.30
2014,09,14,02,55,12.20
2014,09,14,02,56,12.10
2014,09,14,02,57,12.10
2014,09,14,02,58,12.00
2014,09,14,02,59,12.00
2014,09,14,03,00,11.90
2014,09,14,03,01,11.90
2014,09,14,03,02,11.90
2014,09,14,03,03,11.90
2014,09,14,03,04,11.90
2014,09,14,03,05,11.90
2014,09,14,03,06,11.90
2014,09,14,03,07,11.90
2014,09,14,03,08,11.80
2014,09,14,03,09,11.80
2014,09,14,03,10,11.80
2014,09,14,03,11,11.80
2014,09,14,03,12,11.80
2014,09,14,03,13,11.80
2014,09,14,03,14,11.80
2014,09,14,03,15,11.80
2014,09,14,03,16,11.80
2014,09,14,03,17,11.80
2014,09,14,03,18,11.80
2014,09,14,03,19,11.80
2014,09,14,03,20,11.80
2014,09,14,03,21,11.80
2014,09,14,03,22,11.80
2014,09,14,03,23,11.80
2014,09,14,03,24,11.90
2014,09,14,03,25,11.90
2014,09,14,03,26,12.00
2014,09,14,03,27,12.10
2014,09,14,03,28,12.10
2014,09,14,03,29,12.20
2014,09,14,03,30,12.20
2014,09,14,03,31,12.30
2014,09,14,03,32,12.30
2014,09,14,03,33,12.30
2014,09,14,03,34,12.30
2014,09,14,03,35,12.30
2014,09,14,03,36,12.40
2014,09,14,03,37,12.40
2014,09,14,03,38,12.40
2014,09,14,03,39,12.30
2014,09,14,03,40,12.30
2014,09,14,03,41,12.30
2014,09,14,03,42,12.30
2014,09,14,03,43,12.20
2014,09,14,03,44,12.10
2014,09,14,03,45,12.10
2014,09,14,03,46,12.00
2014,09,14,03,47,12.00
2014,09,14,03,48,11.90
2014,09,14,03,49,11.90
2014,09,14,03,50,12.00
2014,09,14,03,51,12.00
2014,09,14,03,52,12.00
2014,09,14,03,53,11.90
2014,09,14,03,54,11.90
2014,09,14,03,55,11.90
2014,09,14,03,56,11.90
2014,09,14,03,57,11.90
2014,09,14,03,58,11.80
2014,09,14,03,59,11.80
2014,09,14,04,00,11.80
2014,09,14,04,01,11.80
2014,09,14,04,02,11.80
2014,09,14,04,03,11.80
2014,09,14,04,04,11.80
2014,09,14,04,05,11.80
2014,09,14,04,06,11.80
2014,09,14,04,07,11.80
2014,09,14,04,08,11.80
2014,09,14,04,09,11.80
2014,09,14,04,10,11.80
2014,09,14,04,11,11.80
2014,09,14,04,12,11.80
2014,09,14,04,13,11.80
2014,09,14,04,14,11.80
2014,09,14,04,15,11.80
2014,09,14,04,16,11.80
2014,09,14,04,17,11.80
2014,09,14,04,18,11.80
2014,09,14,04,19,11.80
2014,09,14,04,20,11.80
2014,09,14,04,21,11.80
2014,09,14,04,22,11.90
2014,09,14,04,23,11.90
2014,09,14,04,24,11.90
2014,09,14,04,25,11.90
2014,09,14,04,26,11.90
2014,09,14,04,27,11.90
2014,09,14,04,28,11.90
2014,09,14,04,29,11.90
2014,09,14,04,30,11.90
2014,09,14,04,31,11.90
2014,09,14,04,32,11.80
2014,09,14,04,33,11.80
2014,09,14,04,34,11.80
2014,09,14,04,35,11.80
2014,09,14,04,36,11.80
2014,09,14,04,37,11.80
2014,09,14,04,38,11.80
2014,09,14,04,39,11.80
2014,09,14,04,40,11.80
2014,09,14,04,41,11.80
2014,09,14,04,42,11.80
2014,09,14,04,43,11.80
2014,09,14,04,44,11.80
2014,09,14,04,45,11.80
2014,09,14,04,46,11.90
2014,09,14,04,47,11.90
2014,09,14,04,48,11.90
2014,09,14,04,49,12.00
2014,09,14,04,50,12.00
2014,09,14,04,51,12.00
2014,09,14,04,52,12.00
2014,09,14,04,53,12.00
2014,09,14,04,54,12.00
2014,09,14,04,55,12.00
2014,09,14,04,56,12.00
2014,09,14,04,57,12.00
2014,09,14,04,58,12.00
2014,09,14,04,59,12.00
2014,09,14,05,00,12.00
2014,09,14,05,01,12.00
2014,09,14,05,02,12.00
2014,09,14,05,03,11.90
2014,09,14,05,04,11.90
2014,09,14,05,05,11.90
2014,09,14,05,06,11.90
2014,09,14,05,07,11.90
2014,09,14,05,08,11.90
2014,09,14,05,09,11.90
2014,09,14,05,10,11.90
2014,09,14,05,11,11.80
2014,09,14,05,12,11.80
2014,09,14,05,13,11.80
2014,09,14,05,14,11.70
2014,09,14,05,15,11.70
2014,09,14,05,16,11.70
2014,09,14,05,17,11.70
2014,09,14,05,18,11.70
2014,09,14,05,19,11.70
2014,09,14,05,20,11.60
2014,09,14,05,21,11.60
2014,09,14,05,22,11.60
2014,09,14,05,23,11.60
2014,09,14,05,24,11.60
2014,09,14,05,25,11.60
2014,09,14,05,26,11.50
2014,09,14,05,27,11.40
2014,09,14,05,28,11.40
2014,09,14,05,29,11.40
2014,09,14,05,30,11.40
2014,09,14,05,31,11.30
2014,09,14,05,32,11.30
2014,09,14,05,33,11.20
2014,09,14,05,34,11.20
2014,09,14,05,35,11.10
2014,09,14,05,36,11.10
2014,09,14,05,37,11.10
2014,09,14,05,38,11.00
2014,09,14,05,39,10.90
2014,09,14,05,40,10.90
2014,09,14,05,41,10.90
2014,09,14,05,42,10.90
2014,09,14,05,43,10.90
2014,09,14,05,44,10.90
2014,09,14,05,45,10.90
2014,09,14,05,46,10.90
2014,09,14,05,47,10.90
2014,09,14,05,48,10.90
2014,09,14,05,49,10.90
2014,09,14,05,50,10.90
2014,09,14,05,51,10.90
2014,09,14,05,52,10.90
2014,09,14,05,53,10.80
2014,09,14,05,54,10.80
2014,09,14,05,55,10.80
2014,09,14,05,56,10.80
2014,09,14,05,57,10.70
2014,09,14,05,58,10.70
2014,09,14,05,59,10.70
2014,09,14,06,00,10.60
2014,09,14,06,01,10.60
2014,09,14,06,02,10.60
2014,09,14,06,03,10.60
2014,09,14,06,04,10.60
2014,09,14,06,05,10.60
2014,09,14,06,06,10.50
2014,09,14,06,07,10.40
2014,09,14,06,08,10.40
2014,09,14,06,09,10.40
2014,09,14,06,10,10.40
2014,09,14,06,11,10.40
2014,09,14,06,12,10.40
2014,09,14,06,13,10.40
2014,09,14,06,14,10.40
2014,09,14,06,15,10.40
2014,09,14,06,16,10.40
2014,09,14,06,17,10.50
2014,09,14,06,18,10.60
2014,09,14,06,19,10.60
2014,09,14,06,20,10.70
2014,09,14,06,21,10.70
2014,09,14,06,22,10.70
2014,09,14,06,23,10.80
2014,09,14,06,24,10.80
2014,09,14,06,25,10.80
2014,09,14,06,26,10.80
2014,09,14,06,27,10.80
2014,09,14,06,28,10.80
2014,09,14,06,29,10.80
2014,09,14,06,30,10.80
2014,09,14,06,31,10.80
2014,09,14,06,32,10.80
2014,09,14,06,33,10.70
2014,09,14,06,34,10.70
2014,09,14,06,35,10.70
2014,09,14,06,36,10.70
2014,09,14,06,37,10.70
2014,09,14,06,38,10.60
2014,09,14,06,39,10.60
2014,09,14,06,40,10.60
2014,09,14,06,41,10.60
2014,09,14,06,42,10.60
2014,09,14,06,43,10.60
2014,09,14,06,44,10.60
2014,09,14,06,45,10.50
2014,09,14,06,46,10.40
2014,09,14,06,47,10.40
2014,09,14,06,48,10.40
2014,09,14,06,49,10.40
2014,09,14,06,50,10.40
2014,09,14,06,51,10.40
2014,09,14,06,52,10.40
2014,09,14,06,53,10.40
2014,09,14,06,54,10.40
2014,09,14,06,55,10.40
2014,09,14,06,56,10.40
2014,09,14,06,57,10.40
2014,09,14,06,58,10.40
2014,09,14,06,59,10.40
2014,09,14,07,00,10.40
2014,09,14,07,01,10.40
2014,09,14,07,02,10.40
2014,09,14,07,03,10.30
2014,09,14,07,04,10.30
2014,09,14,07,05,10.30
2014,09,14,07,06,10.30
2014,09,14,07,07,10.30
2014,09,14,07,08,10.20
2014,09,14,07,09,10.20
2014,09,14,07,10,10.20
2014,09,14,07,11,10.20
2014,09,14,07,12,10.20
2014,09,14,07,13,10.20
2014,09,14,07,14,10.20
2014,09,14,07,15,10.20
2014,09,14,07,16,10.30
2014,09,14,07,17,10.30
2014,09,14,07,18,10.30
2014,09,14,07,19,10.30
2014,09,14,07,20,10.40
2014,09,14,07,21,10.40
2014,09,14,07,22,10.40
2014,09,14,07,23,10.50
2014,09,14,07,24,10.60
2014,09,14,07,25,10.60
2014,09,14,07,26,10.60
2014,09,14,07,27,10.70
2014,09,14,07,28,10.70
2014,09,14,07,29,10.80
2014,09,14,07,30,10.80
2014,09,14,07,31,10.90
2014,09,14,07,32,10.90
2014,09,14,07,33,10.90
2014,09,14,07,34,10.90
2014,09,14,07,35,11.10
2014,09,14,07,36,11.10
2014,09,14,07,37,11.10
2014,09,14,07,38,11.20
2014,09,14,07,39,11.20
2014,09,14,07,40,11.30
2014,09,14,07,41,11.40
2014,09,14,07,42,11.50
2014,09,14,07,43,11.60
2014,09,14,07,44,11.60
2014,09,14,07,45,11.70
2014,09,14,07,46,11.80
2014,09,14,07,47,11.80
2014,09,14,07,48,11.90
2014,09,14,07,49,12.00
2014,09,14,07,50,12.10
2014,09,14,07,51,12.20
2014,09,14,07,52,12.30
2014,09,14,07,53,12.40
2014,09,14,07,54,12.50
2014,09,14,07,55,12.60
2014,09,14,07,56,12.70
2014,09,14,07,57,12.80
2014,09,14,07,58,12.90
2014,09,14,07,59,13.10
2014,09,14,08,00,13.10
2014,09,14,08,01,13.20
2014,09,14,08,02,13.30
2014,09,14,08,03,13.40
2014,09,14,08,04,13.50
2014,09,14,08,05,13.60
2014,09,14,08,06,13.70
2014,09,14,08,07,13.80
2014,09,14,08,08,13.90
2014,09,14,08,09,14.00
2014,09,14,08,10,14.10
2014,09,14,08,11,14.30
2014,09,14,08,12,14.40
2014,09,14,08,13,14.50
2014,09,14,08,14,14.60
2014,09,14,08,15,14.60
2014,09,14,08,16,14.70
2014,09,14,08,17,14.60
2014,09,14,08,18,14.50
2014,09,14,08,19,14.40
2014,09,14,08,20,14.20
2014,09,14,08,21,14.20
2014,09,14,08,22,14.10
2014,09,14,08,23,14.00
2014,09,14,08,24,14.00
2014,09,14,08,25,14.10
2014,09,14,08,26,14.10
2014,09,14,08,27,14.20
2014,09,14,08,28,14.20
2014,09,14,08,29,14.20
2014,09,14,08,30,14.20
2014,09,14,08,31,14.20
2014,09,14,08,32,14.20
2014,09,14,08,33,14.20
2014,09,14,08,34,14.30
2014,09,14,08,35,14.30
2014,09,14,08,36,14.30
2014,09,14,08,37,14.40
2014,09,14,08,38,14.50
2014,09,14,08,39,14.60
2014,09,14,08,40,14.60
2014,09,14,08,41,14.80
2014,09,14,08,42,14.90
2014,09,14,08,43,15.00
2014,09,14,08,44,15.10
2014,09,14,08,45,15.20
2014,09,14,08,46,15.30
2014,09,14,08,47,15.40
2014,09,14,08,48,15.50
2014,09,14,08,49,15.60
2014,09,14,08,50,15.70
2014,09,14,08,51,15.80
2014,09,14,08,52,15.90
2014,09,14,08,53,16.10
2014,09,14,08,54,16.20
2014,09,14,08,55,16.30
2014,09,14,08,56,16.40
2014,09,14,08,57,16.40
2014,09,14,08,58,16.40
2014,09,14,08,59,16.60
2014,09,14,09,00,16.60
2014,09,14,09,01,16.70
2014,09,14,09,02,16.70
2014,09,14,09,03,16.80
2014,09,14,09,04,16.80
2014,09,14,09,05,16.90
2014,09,14,09,06,17.00
2014,09,14,09,07,17.00
2014,09,14,09,08,17.00
2014,09,14,09,09,17.10
2014,09,14,09,10,17.10
2014,09,14,09,11,17.20
2014,09,14,09,12,17.20
2014,09,14,09,13,17.20
2014,09,14,09,14,17.20
2014,09,14,09,15,17.30
2014,09,14,09,16,17.30
2014,09,14,09,17,17.30
2014,09,14,09,18,17.30
2014,09,14,09,19,17.30
2014,09,14,09,20,17.40
2014,09,14,09,21,17.40
2014,09,14,09,22,17.40
2014,09,14,09,23,17.50
2014,09,14,09,24,17.50
2014,09,14,09,25,17.50
2014,09,14,09,26,17.60
2014,09,14,09,27,17.60
2014,09,14,09,28,17.60
2014,09,14,09,29,17.70
2014,09,14,09,30,17.70
2014,09,14,09,31,17.80
2014,09,14,09,32,17.80
2014,09,14,09,33,17.80
2014,09,14,09,34,17.90
2014,09,14,09,35,17.90
2014,09,14,09,36,17.90
2014,09,14,09,37,17.90
2014,09,14,09,38,18.00
2014,09,14,09,39,18.10
2014,09,14,09,40,18.00
2014,09,14,09,41,18.00
2014,09,14,09,42,18.00
2014,09,14,09,43,18.00
2014,09,14,09,44,18.00
2014,09,14,09,45,17.90
2014,09,14,09,46,17.90
2014,09,14,09,47,17.90
2014,09,14,09,48,17.90
2014,09,14,09,49,18.00
2014,09,14,09,50,18.10
2014,09,14,09,51,18.10
2014,09,14,09,52,18.10
2014,09,14,09,53,18.10
2014,09,14,09,54,18.10
2014,09,14,09,55,18.20
2014,09,14,09,56,18.20
2014,09,14,09,57,18.20
2014,09,14,09,58,18.20
2014,09,14,09,59,18.20
2014,09,14,10,00,18.20
2014,09,14,10,01,18.20
2014,09,14,10,02,18.30
2014,09,14,10,03,18.30
2014,09,14,10,04,18.40
2014,09,14,10,05,18.40
2014,09,14,10,06,18.40
2014,09,14,10,07,18.50
2014,09,14,10,08,18.50
2014,09,14,10,09,18.50
2014,09,14,10,10,18.50
2014,09,14,10,11,18.60
2014,09,14,10,12,18.60
2014,09,14,10,13,18.60
2014,09,14,10,14,18.60
2014,09,14,10,15,18.70
2014,09,14,10,16,18.70
2014,09,14,10,17,18.70
2014,09,14,10,18,18.80
2014,09,14,10,19,18.80
2014,09,14,10,20,18.90
2014,09,14,10,21,19.00
2014,09,14,10,22,19.10
2014,09,14,10,23,19.10
2014,09,14,10,24,19.20
2014,09,14,10,25,19.20
2014,09,14,10,26,19.30
2014,09,14,10,27,19.30
2014,09,14,10,28,19.40
2014,09,14,10,29,19.40
2014,09,14,10,30,19.40
2014,09,14,10,31,19.50
2014,09,14,10,32,19.50
2014,09,14,10,33,19.60
2014,09,14,10,34,19.60
2014,09,14,10,35,19.60
2014,09,14,10,36,19.70
2014,09,14,10,37,19.70
2014,09,14,10,38,19.80
2014,09,14,10,39,19.90
2014,09,14,10,40,19.90
2014,09,14,10,41,20.10
2014,09,14,10,42,20.20
2014,09,14,10,43,20.20
2014,09,14,10,44,20.20
2014,09,14,10,45,20.30
2014,09,14,10,46,20.30
2014,09,14,10,47,20.30
2014,09,14,10,48,20.40
2014,09,14,10,49,20.50
2014,09,14,10,50,20.50
2014,09,14,10,51,20.60
2014,09,14,10,52,20.60
2014,09,14,10,53,20.70
2014,09,14,10,54,20.70
2014,09,14,10,55,20.70
2014,09,14,10,56,20.80
2014,09,14,10,57,20.80
2014,09,14,10,58,20.90
2014,09,14,10,59,20.90
2014,09,14,11,00,20.90
2014,09,14,11,01,20.90
2014,09,14,11,02,21.00
2014,09,14,11,03,21.00
2014,09,14,11,04,21.00
2014,09,14,11,05,21.10
2014,09,14,11,06,21.10
2014,09,14,11,07,21.10
2014,09,14,11,08,21.10
2014,09,14,11,09,21.20
2014,09,14,11,10,21.20
2014,09,14,11,11,21.30
2014,09,14,11,12,21.30
2014,09,14,11,13,21.30
2014,09,14,11,14,21.30
2014,09,14,11,15,21.30
2014,09,14,11,16,21.30
2014,09,14,11,17,21.40
2014,09,14,11,18,21.40
2014,09,14,11,19,21.50
2014,09,14,11,20,21.60
2014,09,14,11,21,21.60
2014,09,14,11,22,21.70
2014,09,14,11,23,21.80
2014,09,14,11,24,21.80
2014,09,14,11,25,21.90
2014,09,14,11,26,22.00
2014,09,14,11,27,22.00
2014,09,14,11,28,22.10
2014,09,14,11,29,22.10
2014,09,14,11,30,22.10
2014,09,14,11,31,22.20
2014,09,14,11,32,22.20
2014,09,14,11,33,22.30
2014,09,14,11,34,22.30
2014,09,14,11,35,22.40
2014,09,14,11,36,22.50
2014,09,14,11,37,22.50
2014,09,14,11,38,22.60
2014,09,14,11,39,22.60
2014,09,14,11,40,22.60
2014,09,14,11,41,22.70
2014,09,14,11,42,22.70
2014,09,14,11,43,22.70
2014,09,14,11,44,22.70
2014,09,14,11,45,22.70
2014,09,14,11,46,22.70
2014,09,14,11,47,22.70
2014,09,14,11,48,22.70
2014,09,14,11,49,22.60
2014,09,14,11,50,22.60
2014,09,14,11,51,22.60
2014,09,14,11,52,22.60
2014,09,14,11,53,22.50
2014,09,14,11,54,22.50
2014,09,14,11,55,22.50
2014,09,14,11,56,22.50
2014,09,14,11,57,22.50
2014,09,14,11,58,22.50
2014,09,14,11,59,22.50
2014,09,14,12,00,22.50
2014,09,14,12,01,22.50
2014,09,14,12,02,22.40
2014,09,14,12,03,22.40
2014,09,14,12,04,22.40
2014,09,14,12,05,22.40
2014,09,14,12,06,22.40
2014,09,14,12,07,22.50
2014,09,14,12,08,22.50
2014,09,14,12,09,22.50
2014,09,14,12,10,22.60
2014,09,14,12,11,22.60
2014,09,14,12,12,22.60
2014,09,14,12,13,22.70
2014,09,14,12,14,22.70
2014,09,14,12,15,22.80
2014,09,14,12,16,22.90
2014,09,14,12,17,22.90
2014,09,14,12,18,22.90
2014,09,14,12,19,22.90
2014,09,14,12,20,22.90
2014,09,14,12,21,22.90
2014,09,14,12,22,22.90
2014,09,14,12,23,22.90
2014,09,14,12,24,22.90
2014,09,14,12,25,22.90
2014,09,14,12,26,22.90
2014,09,14,12,27,22.90
2014,09,14,12,28,22.90
2014,09,14,12,29,23.00
2014,09,14,12,30,23.10
2014,09,14,12,31,23.10
2014,09,14,12,32,23.20
2014,09,14,12,33,23.20
2014,09,14,12,34,23.20
2014,09,14,12,35,23.20
2014,09,14,12,36,23.20
2014,09,14,12,37,23.20
2014,09,14,12,38,23.20
2014,09,14,12,39,23.20
2014,09,14,12,40,23.20
2014,09,14,12,41,23.20
2014,09,14,12,42,23.20
2014,09,14,12,43,23.20
2014,09,14,12,44,23.30
2014,09,14,12,45,23.30
2014,09,14,12,46,23.30
2014,09,14,12,47,23.30
2014,09,14,12,48,23.40
2014,09,14,12,49,23.50
2014,09,14,12,50,23.60
2014,09,14,12,51,23.70
2014,09,14,12,52,23.70
2014,09,14,12,53,23.70
2014,09,14,12,54,23.70
2014,09,14,12,55,23.70
2014,09,14,12,56,23.70
2014,09,14,12,57,23.70
2014,09,14,12,58,23.70
2014,09,14,12,59,23.70
2014,09,14,13,00,23.70
2014,09,14,13,01,23.60
2014,09,14,13,02,23.50
2014,09,14,13,03,23.40
2014,09,14,13,04,23.30
2014,09,14,13,05,23.30
2014,09,14,13,06,23.30
2014,09,14,13,07,23.20
2014,09,14,13,08,23.20
2014,09,14,13,09,23.20
2014,09,14,13,10,23.30
2014,09,14,13,11,23.30
2014,09,14,13,12,23.30
2014,09,14,13,13,23.30
2014,09,14,13,14,23.30
2014,09,14,13,15,23.30
2014,09,14,13,16,23.30
2014,09,14,13,17,23.30
2014,09,14,13,18,23.30
2014,09,14,13,19,23.30
2014,09,14,13,20,23.30
2014,09,14,13,21,23.30
2014,09,14,13,22,23.30
2014,09,14,13,23,23.40
2014,09,14,13,24,23.40
2014,09,14,13,25,23.50
2014,09,14,13,26,23.60
2014,09,14,13,27,23.70
2014,09,14,13,28,23.60
2014,09,14,13,29,23.70
2014,09,14,13,30,23.70
2014,09,14,13,31,23.70
2014,09,14,13,32,23.70
2014,09,14,13,33,23.70
2014,09,14,13,34,23.80
2014,09,14,13,35,23.90
2014,09,14,13,36,23.90
2014,09,14,13,37,24.00
2014,09,14,13,38,24.10
2014,09,14,13,39,24.10
2014,09,14,13,40,24.10
2014,09,14,13,41,24.10
2014,09,14,13,42,24.10
2014,09,14,13,43,24.10
2014,09,14,13,44,24.10
2014,09,14,13,45,24.10
2014,09,14,13,46,24.10
2014,09,14,13,47,24.10
2014,09,14,13,48,24.00
2014,09,14,13,49,23.90
2014,09,14,13,50,23.90
2014,09,14,13,51,23.90
2014,09,14,13,52,23.90
2014,09,14,13,53,23.90
2014,09,14,13,54,23.90
2014,09,14,13,55,23.90
2014,09,14,13,56,23.90
2014,09,14,13,57,24.00
2014,09,14,13,58,24.10
2014,09,14,13,59,24.10
2014,09,14,14,00,24.10
2014,09,14,14,01,24.10
2014,09,14,14,02,24.10
2014,09,14,14,03,24.10
2014,09,14,14,04,24.20
2014,09,14,14,05,24.20
2014,09,14,14,06,24.30
2014,09,14,14,07,24.30
2014,09,14,14,08,24.30
2014,09,14,14,09,24.40
2014,09,14,14,10,24.40
2014,09,14,14,11,24.40
2014,09,14,14,12,24.50
2014,09,14,14,13,24.50
2014,09,14,14,14,24.50
2014,09,14,14,15,24.60
2014,09,14,14,16,24.60
2014,09,14,14,17,24.60
2014,09,14,14,18,24.60
2014,09,14,14,19,24.60
2014,09,14,14,20,24.70
2014,09,14,14,21,24.70
2014,09,14,14,22,24.70
2014,09,14,14,23,24.70
2014,09,14,14,24,24.70
2014,09,14,14,25,24.80
2014,09,14,14,26,24.80
2014,09,14,14,27,24.80
2014,09,14,14,28,24.80
2014,09,14,14,29,24.90
2014,09,14,14,30,24.90
2014,09,14,14,31,25.00
2014,09,14,14,32,25.00
2014,09,14,14,33,25.00
2014,09,14,14,34,25.00
2014,09,14,14,35,24.90
2014,09,14,14,36,24.90
2014,09,14,14,37,24.90
2014,09,14,14,38,24.90
2014,09,14,14,39,24.90
2014,09,14,14,40,24.90
2014,09,14,14,41,24.90
2014,09,14,14,42,24.90
2014,09,14,14,43,24.90
2014,09,14,14,44,24.90
2014,09,14,14,45,24.90
2014,09,14,14,46,24.90
2014,09,14,14,47,24.90
2014,09,14,14,48,24.80
2014,09,14,14,49,24.80
2014,09,14,14,50,24.70
2014,09,14,14,51,24.70
2014,09,14,14,52,24.60
2014,09,14,14,53,24.50
2014,09,14,14,54,24.50
2014,09,14,14,55,24.50
2014,09,14,14,56,24.50
2014,09,14,14,57,24.50
2014,09,14,14,58,24.50
2014,09,14,14,59,24.50
2014,09,14,15,00,24.50
2014,09,14,15,01,24.50
2014,09,14,15,02,24.60
2014,09,14,15,03,24.60
2014,09,14,15,04,24.60
2014,09,14,15,05,24.60
2014,09,14,15,06,24.60
2014,09,14,15,07,24.70
2014,09,14,15,08,24.70
2014,09,14,15,09,24.70
2014,09,14,15,10,24.70
2014,09,14,15,11,24.70
2014,09,14,15,12,24.70
2014,09,14,15,13,24.70
2014,09,14,15,14,24.70
2014,09,14,15,15,24.70
2014,09,14,15,16,24.70
2014,09,14,15,17,24.70
2014,09,14,15,18,24.70
2014,09,14,15,19,24.70
2014,09,14,15,20,24.70
2014,09,14,15,21,24.70
2014,09,14,15,22,24.80
2014,09,14,15,23,24.80
2014,09,14,15,24,24.80
2014,09,14,15,25,24.90
2014,09,14,15,26,24.90
2014,09,14,15,27,24.90
2014,09,14,15,28,24.90
2014,09,14,15,29,24.90
2014,09,14,15,30,25.00
2014,09,14,15,31,25.00
2014,09,14,15,32,25.10
2014,09,14,15,33,25.10
2014,09,14,15,34,25.10
2014,09,14,15,35,25.20
2014,09,14,15,36,25.20
2014,09,14,15,37,25.20
2014,09,14,15,38,25.30
2014,09,14,15,39,25.30
2014,09,14,15,40,25.40
2014,09,14,15,41,25.40
2014,09,14,15,42,25.50
2014,09,14,15,43,25.50
2014,09,14,15,44,25.50
2014,09,14,15,45,25.50
2014,09,14,15,46,25.50
2014,09,14,15,47,25.50
2014,09,14,15,48,25.50
2014,09,14,15,49,25.50
2014,09,14,15,50,25.50
2014,09,14,15,51,25.60
2014,09,14,15,52,25.60
2014,09,14,15,53,25.60
2014,09,14,15,54,25.60
2014,09,14,15,55,25.60
2014,09,14,15,56,25.60
2014,09,14,15,57,25.60
2014,09,14,15,58,25.60
2014,09,14,15,59,25.60
2014,09,14,16,00,25.60
2014,09,14,16,01,25.60
2014,09,14,16,02,25.60
2014,09,14,16,03,25.60
2014,09,14,16,04,25.60
2014,09,14,16,05,25.60
2014,09,14,16,06,25.60
2014,09,14,16,07,25.60
2014,09,14,16,08,25.60
2014,09,14,16,09,25.60
2014,09,14,16,10,25.60
2014,09,14,16,11,25.60
2014,09,14,16,12,25.60
2014,09,14,16,13,25.60
2014,09,14,16,14,25.60
2014,09,14,16,15,25.60
2014,09,14,16,16,25.60
2014,09,14,16,17,25.60
2014,09,14,16,18,25.60
2014,09,14,16,19,25.60
2014,09,14,16,20,25.60
2014,09,14,16,21,25.60
2014,09,14,16,22,25.60
2014,09,14,16,23,25.60
2014,09,14,16,24,25.70
2014,09,14,16,25,25.70
2014,09,14,16,26,25.70
2014,09,14,16,27,25.70
2014,09,14,16,28,25.70
2014,09,14,16,29,25.70
2014,09,14,16,30,25.80
2014,09,14,16,31,25.80
2014,09,14,16,32,25.80
2014,09,14,16,33,25.80
2014,09,14,16,34,25.90
2014,09,14,16,35,25.90
2014,09,14,16,36,26.00
2014,09,14,16,37,26.10
2014,09,14,16,38,26.20
2014,09,14,16,39,26.20
2014,09,14,16,40,26.30
2014,09,14,16,41,26.30
2014,09,14,16,42,26.20
2014,09,14,16,43,26.20
2014,09,14,16,44,26.30
2014,09,14,16,45,26.30
2014,09,14,16,46,26.10
2014,09,14,16,47,25.80
2014,09,14,16,48,25.20
2014,09,14,16,49,24.70
2014,09,14,16,50,24.30
2014,09,14,16,51,23.90
2014,09,14,16,52,23.60
2014,09,14,16,53,23.40
2014,09,14,16,54,23.30
2014,09,14,16,55,23.00
2014,09,14,16,56,22.70
2014,09,14,16,57,22.40
2014,09,14,16,58,22.20
2014,09,14,16,59,22.00
2014,09,14,17,00,21.90
2014,09,14,17,01,21.90
2014,09,14,17,02,21.90
2014,09,14,17,03,22.00
2014,09,14,17,04,22.00
2014,09,14,17,05,22.10
2014,09,14,17,06,22.10
2014,09,14,17,07,22.30
2014,09,14,17,08,22.30
2014,09,14,17,09,22.50
2014,09,14,17,10,22.70
2014,09,14,17,11,22.80
2014,09,14,17,12,23.00
2014,09,14,17,13,23.20
2014,09,14,17,14,23.30
2014,09,14,17,15,23.50
2014,09,14,17,16,23.70
2014,09,14,17,17,23.80
2014,09,14,17,18,23.90
2014,09,14,17,19,24.00